CW9861 Weather Reports


time (UTC)temp
F
wind
direction
speed
knots
gust
knots
rain 1hr
in
rain 24hr
in
rain mn
in
humidity
%
barometer
mb
20260902093000 74 284 0.0 0.9 0.00 0.00 0.00 90 1013.3
20260902092459 74 284 0.0 0.9 0.00 0.00 0.00 91 1013.3
20260902091959 74 284 0.0 0.0 0.00 0.00 0.00 91 1013.2
20260902091459 75 284 0.0 0.0 0.00 0.00 0.00 91 1013.2
20260902090958 75 284 0.0 0.0 0.00 0.00 0.00 91 1013.1
20260902090459 75 284 0.0 0.0 0.00 0.00 0.00 91 1013.1
20260902085958 75 284 0.0 0.0 0.00 0.00 0.00 91 1013.0
20260902085458 75 284 0.0 0.0 0.00 0.00 0.00 91 1013.1
20260902084957 75 284 0.0 0.9 0.00 0.00 0.00 91 1013.1
20260902084458 75 284 0.0 0.9 0.00 0.00 0.00 91 1013.0
20260902083957 75 294 0.0 2.6 0.00 0.00 0.00 91 1012.9
20260902083457 75 335 0.0 2.6 0.00 0.00 0.00 91 1012.7
20260902082957 75 328 0.9 1.7 0.00 0.00 0.00 91 1012.5
20260902082457 75 289 0.0 1.7 0.00 0.00 0.00 91 1012.4
20260902081958 75 257 0.9 1.7 0.00 0.00 0.00 91 1012.4
20260902081458 75 213 0.9 1.7 0.00 0.00 0.00 91 1012.3
20260902080957 74 318 0.9 1.7 0.00 0.00 0.00 91 1012.3
20260902080459 74 297 0.9 2.6 0.00 0.00 0.00 91 1012.4
20260902072458 73 229 0.0 0.9 0.00 0.00 0.00 90 1012.5
20260902071958 73 319 0.0 0.9 0.00 0.00 0.00 90 1012.6
20260902071457 73 318 0.0 0.9 0.00 0.00 0.00 90 1012.7
20260902070957 73 319 0.0 0.0 0.00 0.00 0.00 90 1012.6
20260902070457 72 318 0.0 0.0 0.00 0.00 0.00 90 1012.6
20260902065958 72 318 0.0 0.0 0.00 0.00 0.00 90 1012.5
20260902065457 72 318 0.0 0.0 0.00 0.00 0.00 90 1012.6
20260902064957 72 318 0.0 0.0 0.00 0.00 0.00 90 1012.7
20260902064458 72 318 0.0 0.0 0.00 0.00 0.00 89 1012.7
20260902063957 72 318 0.0 0.0 0.00 0.00 0.00 89 1012.8
20260902063457 73 318 0.0 0.0 0.00 0.00 0.00 89 1012.7
20260902062957 73 318 0.0 0.0 0.00 0.00 0.00 89 1012.7
20260902062457 73 318 0.0 0.0 0.00 0.00 0.00 89 1012.8
20260902061958 73 318 0.0 0.0 0.00 0.00 0.00 89 1012.8
20260902061457 73 318 0.0 0.0 0.00 0.00 0.00 89 1012.7
20260902060958 73 318 0.0 0.0 0.00 0.00 0.00 89 1012.8
20260902060458 73 318 0.0 0.0 0.00 0.00 0.00 89 1012.5
20260902055958 73 318 0.0 0.0 0.00 0.00 0.00 89 1012.5
20260902055458 73 318 0.0 0.0 0.00 0.00 0.00 89 1012.4
20260902054958 73 318 0.0 0.0 0.00 0.00 0.00 89 1012.5
20260902054457 73 318 0.0 0.0 0.00 0.00 0.00 89 1012.5
20260902053957 73 318 0.0 0.0 0.00 0.00 0.00 89 1012.4
20260902053457 73 319 0.0 0.0 0.00 0.00 0.00 89 1012.4
20260902052957 73 318 0.0 0.0 0.00 0.00 0.00 89 1012.3
20260902052457 73 318 0.0 0.0 0.00 0.00 0.00 89 1012.3
20260902051957 73 318 0.0 0.0 0.00 0.00 0.00 89 1012.6
20260902051457 73 319 0.0 0.0 0.00 0.00 0.00 89 1012.8
20260902050957 73 318 0.0 0.0 0.00 0.00 0.00 89 1012.9
20260902050457 73 318 0.0 0.0 0.00 0.00 0.00 89 1012.8
20260902050000 73 318 0.0 0.0 0.00 0.00 0.00 89 1012.8
20260902045500 73 318 0.0 0.0 0.00 0.00 0.00 89 1012.8
20260902044959 74 318 0.0 0.0 0.00 0.00 0.00 89 1012.8
20260902044500 74 319 0.0 0.0 0.00 0.00 0.00 89 1012.8
20260902043959 74 318 0.0 0.9 0.00 0.00 0.00 89 1012.6
20260902043459 74 318 0.0 0.9 0.00 0.00 0.00 89 1012.5
20260902042959 74 319 0.0 0.9 0.00 0.00 0.00 89 1012.6
20260902042459 74 318 0.0 0.9 0.00 0.00 0.00 89 1012.4
20260902042000 74 247 0.0 0.9 0.00 0.00 0.00 89 1012.5
20260902041500 74 228 0.0 0.0 0.00 0.00 0.00 89 1012.6
20260902041000 74 228 0.0 0.0 0.00 0.00 0.00 89 1012.7
20260902033458 75 228 0.0 0.0 0.00 0.00 0.00 89 1012.8
20260902032958 75 228 0.0 0.9 0.00 0.00 0.00 88 1012.8
20260902032458 75 228 0.0 0.9 0.00 0.00 0.00 88 1012.8
20260902031958 75 228 0.0 0.0 0.00 0.00 0.00 88 1012.8
20260902031458 75 228 0.0 0.0 0.00 0.00 0.00 88 1012.9
20260902030958 75 228 0.0 0.0 0.00 0.00 0.00 88 1013.1
20260902030458 75 228 0.0 0.0 0.00 0.00 0.00 88 1013.2
20260902022959 76 228 0.0 1.7 0.00 0.00 0.00 88 1012.9
20260902022458 76 239 0.0 0.0 0.00 0.00 0.00 87 1013.0
20260902021958 76 239 0.0 0.0 0.00 0.00 0.00 87 1012.9
20260902021459 76 239 0.0 0.0 0.00 0.00 0.00 87 1012.8
20260902020959 76 239 0.0 0.0 0.00 0.00 0.00 87 1013.1
20260902020459 76 239 0.0 0.0 0.00 0.00 0.00 87 1012.9
20260902020001 77 239 0.0 0.0 0.00 0.00 0.00 88 1012.8
20260902015459 77 239 0.0 0.9 0.00 0.00 0.00 87 1012.9
20260902014959 77 239 0.0 0.9 0.00 0.00 0.00 87 1012.9
20260902014459 77 239 0.0 0.9 0.00 0.00 0.00 85 1013.0
20260902013959 77 239 0.0 0.0 0.00 0.00 0.00 85 1012.9
20260902013500 77 239 0.0 0.0 0.00 0.00 0.00 85 1013.0
20260902012959 78 239 0.0 0.0 0.00 0.00 0.00 85 1013.0
20260902012459 78 239 0.0 0.0 0.00 0.00 0.00 84 1012.9
20260902011959 78 239 0.0 0.0 0.00 0.00 0.00 84 1012.9
20260902011459 78 238 0.0 0.0 0.00 0.00 0.00 84 1012.7
20260902010959 79 239 0.0 0.0 0.00 0.00 0.00 84 1012.5
20260902010459 79 238 0.0 0.0 0.00 0.00 0.00 84 1012.4
20260902010001 79 239 0.0 1.7 0.00 0.00 0.00 84 1012.3
20260902005459 79 238 0.0 1.7 0.00 0.00 0.00 84 1012.2
20260902004959 80 282 0.0 0.0 0.00 0.00 0.00 85 1012.2
20260902004459 80 282 0.0 0.9 0.00 0.00 0.00 84 1012.3
20260902003959 80 288 0.0 2.6 0.00 0.00 0.00 84 1012.3
20260902003459 80 215 0.0 0.9 0.00 0.00 0.00 84 1012.4
20260902002959 80 250 0.0 0.9 0.00 0.00 0.00 84 1012.4
20260902002459 81 197 0.0 3.5 0.00 0.00 0.00 84 1012.5
20260902001959 81 174 0.0 3.5 0.00 0.00 0.00 84 1012.5
20260902001459 81 213 0.0 0.9 0.00 0.00 0.00 84 1012.7
20260902000959 81 198 0.0 2.6 0.00 0.00 0.00 84 1012.8
20260902000459 81 163 0.0 3.5 0.00 0.00 0.00 84 1012.8
20260902000001 81 280 0.0 3.5 0.00 0.00 0.00 84 1012.9
20260901235459 82 241 0.0 5.2 0.00 0.00 0.00 84 1013.0
20260901234959 82 203 0.0 5.2 0.00 0.00 0.00 84 1012.9
20260901234500 82 296 0.0 1.7 0.00 0.00 0.00 84 1012.9
20260901233959 82 214 0.0 1.7 0.00 0.00 0.00 84 1012.8
20260901233459 82 203 0.0 2.6 0.00 0.00 0.00 84 1013.0
20260901232959 82 200 0.9 2.6 0.00 0.00 0.00 84 1013.2
20260901232500 82 276 0.0 2.6 0.00 0.00 0.00 84 1013.0
20260901231959 82 300 0.9 2.6 0.00 0.00 0.00 83 1013.0
20260901231459 82 290 0.0 2.6 0.00 0.00 0.00 82 1012.9
20260901231000 82 286 0.0 4.3 0.00 0.00 0.00 82 1013.0
20260901230459 82 220 0.9 4.3 0.00 0.00 0.00 82 1012.9
20260901230001 82 271 0.9 7.0 0.00 0.00 0.00 82 1012.8
20260901225459 83 190 0.9 7.0 0.00 0.00 0.00 82 1012.9
20260901224959 83 271 0.0 4.3 0.00 0.00 0.00 82 1012.8
20260901224459 83 280 0.0 4.3 0.00 0.00 0.00 83 1012.8
20260901223959 83 234 0.9 4.3 0.00 0.00 0.00 82 1012.9
20260901223459 83 251 0.0 3.5 0.00 0.00 0.00 83 1012.8
20260901222959 83 214 0.9 4.3 0.00 0.00 0.00 83 1012.9
20260901222459 83 201 0.9 5.2 0.00 0.00 0.00 83 1013.0
20260901221959 83 286 0.9 3.5 0.00 0.00 0.00 83 1013.1
20260901221459 84 331 0.9 7.0 0.00 0.00 0.00 83 1013.2
20260901220959 84 221 2.6 9.6 0.00 0.00 0.00 81 1013.3
20260901220459 85 223 2.6 9.6 0.00 0.00 0.00 80 1013.2
20260901220001 86 307 1.7 7.0 0.00 0.00 0.00 80 1013.2
20260901215500 86 231 2.6 7.0 0.00 0.00 0.00 80 1013.1
20260901214959 85 349 1.7 7.0 0.00 0.00 0.00 81 1013.1
20260901214459 86 311 1.7 7.0 0.00 0.00 0.00 78 1012.9
20260901213959 87 266 1.7 6.1 0.00 0.00 0.00 79 1013.0
20260901213459 87 207 2.6 7.0 0.00 0.00 0.00 78 1012.7
20260901212959 87 349 1.7 7.8 0.00 0.00 0.00 80 1012.7
20260901212459 86 230 2.6 12.2 0.00 0.00 0.00 78 1012.6
20260901212000 87 295 3.5 12.2 0.00 0.00 0.00 77 1012.7
20260901211458 87 301 1.7 8.7 0.00 0.00 0.00 78 1012.6
20260901210958 87 216 1.7 8.7 0.00 0.00 0.00 79 1012.5
20260901210458 87 303 2.6 8.7 0.00 0.00 0.00 78 1012.5
20260901205959 88 246 1.7 9.6 0.00 0.00 0.00 79 1012.5
20260901205500 87 232 1.7 9.6 0.00 0.00 0.00 80 1012.5
20260901204959 86 190 3.5 7.8 0.00 0.00 0.00 80 1012.5
20260901204459 86 242 1.7 7.8 0.00 0.00 0.00 80 1012.7
20260901193959 86 345 2.6 7.0 0.00 0.00 0.00 82 1012.8
20260901193459 86 213 1.7 7.0 0.00 0.00 0.00 83 1012.9
20260901192959 85 248 0.9 5.2 0.00 0.00 0.00 83 1012.9
20260901192459 85 315 1.7 5.2 0.00 0.00 0.00 83 1012.9
20260901191959 86 291 1.7 4.3 0.00 0.00 0.00 82 1013.0
20260901191459 86 138 0.9 6.1 0.00 0.00 0.00 82 1012.9
20260901190959 86 230 2.6 6.1 0.00 0.00 0.00 81 1013.0
20260901190459 87 244 1.7 4.3 0.00 0.00 0.00 80 1013.0
20260901190000 87 215 2.6 4.3 0.00 0.00 0.00 81 1013.0
20260901185459 86 313 2.6 4.3 0.00 0.00 0.00 83 1012.9
20260901184958 85 315 0.9 3.5 0.00 0.00 0.00 84 1013.0
20260901184458 85 314 0.0 3.5 0.00 0.00 0.00 83 1013.0
20260901183959 85 266 0.9 3.5 0.00 0.00 0.00 83 1013.0
20260901183458 85 247 0.9 3.5 0.00 0.00 0.00 83 1013.0
20260901182959 85 238 0.9 6.1 0.00 0.00 0.00 83 1013.0
20260901182459 85 212 1.7 6.1 0.00 0.00 0.00 82 1013.1
20260901181959 86 226 1.7 5.2 0.00 0.00 0.00 80 1013.1
20260901181459 87 271 2.6 7.0 0.00 0.00 0.00 80 1013.1
20260901180959 87 266 2.6 7.0 0.00 0.00 0.00 81 1013.1
20260901180458 86 250 2.6 6.1 0.00 0.00 0.00 81 1013.0
20260901180001 86 335 1.7 4.3 0.00 0.00 0.00 81 1013.0
20260901175459 86 216 1.7 3.5 0.00 0.00 0.00 82 1013.2
20260901174959 85 342 0.9 6.1 0.00 0.00 0.00 83 1013.2
20260901174459 85 250 2.6 6.1 0.00 0.00 0.00 82 1013.3
20260901174000 85 177 1.7 7.0 0.00 0.00 0.00 81 1013.3
20260901173459 86 230 3.5 6.1 0.00 0.00 0.00 82 1013.3
20260901172959 87 309 1.7 5.2 0.00 0.00 0.00 80 1013.3
20260901161500 84 240 0.9 1.7 0.00 0.00 0.00 84 1013.4
20260901160959 83 174 0.9 2.6 0.00 0.00 0.00 84 1013.4
20260901160459 82 212 0.0 1.7 0.00 0.00 0.00 84 1013.4
20260901160000 82 228 0.9 3.5 0.00 0.00 0.00 84 1013.3
20260901155459 83 200 0.0 3.5 0.00 0.00 0.00 82 1013.4
20260901154959 83 315 0.0 0.9 0.00 0.00 0.00 82 1013.4
20260901154459 83 266 0.0 1.7 0.00 0.00 0.00 84 1013.4
20260901150959 82 239 0.9 2.6 0.00 0.00 0.00 84 1013.4
20260901150459 82 230 0.9 5.2 0.00 0.00 0.00 85 1013.5
20260901150001 81 225 0.9 5.2 0.00 0.09 0.00 85 1013.6
20260901145459 82 336 1.7 3.5 0.00 0.09 0.00 84 1013.6
20260901144959 81 232 0.9 3.5 0.00 0.09 0.00 86 1013.5
20260901144459 80 199 0.9 3.5 0.00 0.09 0.00 85 1013.5
20260901143959 80 324 0.9 3.5 0.00 0.09 0.00 87 1013.6
20260901143458 79 281 0.9 3.5 0.00 0.09 0.00 86 1013.5
20260901142959 80 226 0.9 4.3 0.00 0.09 0.00 85 1013.5
20260901142500 81 232 1.7 4.3 0.00 0.09 0.00 85 1013.5
20260901141959 80 320 1.7 7.0 0.00 0.09 0.00 86 1013.4
20260901141459 80 196 1.7 7.0 0.00 0.09 0.00 86 1013.5
20260901140959 79 219 1.7 4.3 0.00 0.09 0.00 87 1013.5
20260901140500 79 295 1.7 3.5 0.00 0.09 0.00 87 1013.6
20260901135959 78 314 1.7 3.5 0.00 0.11 0.00 87 1013.4
20260901135459 78 319 1.7 2.6 0.00 0.11 0.00 88 1013.3
20260901134959 78 287 0.9 4.3 0.00 0.11 0.00 89 1013.3
20260901134500 77 234 0.0 4.3 0.00 0.11 0.00 90 1013.4
20260901133959 76 205 1.7 2.6 0.00 0.11 0.00 90 1013.5
20260901133459 76 226 1.7 2.6 0.00 0.11 0.00 91 1013.5
20260901132959 76 222 0.9 4.3 0.00 0.11 0.00 91 1013.5
20260901132459 75 223 1.7 4.3 0.00 0.11 0.00 91 1013.5
20260901131959 75 197 1.7 3.5 0.00 0.11 0.00 92 1013.5
20260901131459 74 221 0.9 3.5 0.00 0.11 0.00 92 1013.5
20260901130959 74 199 0.9 5.2 0.00 0.11 0.00 92 1013.5
20260901130459 74 241 0.9 5.2 0.00 0.11 0.00 92 1013.3
20260901130002 73 233 1.7 3.5 0.00 0.11 0.00 92 1013.4
20260901125458 73 225 0.9 2.6 0.00 0.11 0.00 92 1013.5
20260901124959 71 223 0.9 2.6 0.00 0.11 0.00 92 1013.5
20260901124459 70 199 0.9 1.7 0.00 0.11 0.00 92 1013.6
20260901123958 69 276 0.0 0.9 0.00 0.11 0.00 92 1013.4
20260901123459 69 276 0.0 0.9 0.00 0.11 0.00 92 1013.5
20260901122959 68 276 0.0 0.0 0.00 0.11 0.00 91 1013.3
20260901122459 68 276 0.0 0.0 0.00 0.11 0.00 91 1013.5
20260901121959 68 276 0.0 0.0 0.00 0.11 0.00 91 1013.5
20260901121458 68 276 0.0 0.0 0.00 0.11 0.00 91 1013.4
20260901120958 67 276 0.0 0.0 0.00 0.11 0.00 91 1013.3
20260901120459 67 276 0.0 0.0 0.00 0.11 0.00 91 1013.1
20260901120000 67 276 0.0 0.0 0.00 0.11 0.00 91 1013.0
20260901115459 67 276 0.0 0.0 0.00 0.11 0.00 91 1013.0
20260901114959 67 276 0.0 0.0 0.00 0.11 0.00 91 1013.0
20260901114459 67 276 0.0 0.0 0.00 0.11 0.00 91 1012.9
20260901113958 67 276 0.0 0.0 0.00 0.11 0.00 91 1012.8
20260901113500 67 276 0.0 0.0 0.00 0.11 0.00 91 1012.7
20260901112958 67 276 0.0 0.0 0.00 0.11 0.00 91 1012.6
20260901112459 67 276 0.0 0.0 0.00 0.11 0.00 91 1012.7
20260901111959 67 276 0.0 0.0 0.00 0.11 0.00 91 1012.6
20260901111459 67 276 0.0 0.0 0.00 0.11 0.00 91 1012.6
20260901110959 67 276 0.0 0.0 0.00 0.11 0.00 91 1012.6
20260901110459 68 276 0.0 0.0 0.00 0.11 0.00 90 1012.6
20260901105959 68 276 0.0 0.0 0.00 0.11 0.00 90 1012.5
20260901105459 68 276 0.0 0.0 0.00 0.11 0.00 90 1012.5
20260901104959 68 276 0.0 0.0 0.00 0.11 0.00 90 1012.5
20260901104458 68 276 0.0 0.0 0.00 0.11 0.00 90 1012.4
20260901103958 68 276 0.0 0.0 0.00 0.11 0.00 90 1012.4
20260901103459 68 276 0.0 0.0 0.00 0.11 0.00 90 1012.4
20260901102959 68 276 0.0 0.0 0.00 0.11 0.00 90 1012.5
20260901102458 68 276 0.0 0.0 0.00 0.11 0.00 90 1012.5
20260901101959 68 276 0.0 0.0 0.00 0.11 0.00 90 1012.5
20260901101458 68 276 0.0 0.9 0.00 0.11 0.00 90 1012.5
20260901100959 69 276 0.0 0.9 0.00 0.11 0.00 91 1012.5
20260901100458 69 276 0.0 0.0 0.00 0.11 0.00 90 1012.5
20260901100001 69 276 0.0 0.0 0.00 0.11 0.00 90 1012.5
20260901095459 69 276 0.0 0.0 0.00 0.11 0.00 90 1012.5
20260901094959 69 276 0.0 0.0 0.00 0.11 0.00 90 1012.4
20260901094459 69 276 0.0 0.0 0.00 0.11 0.00 90 1012.3
20260901093959 69 276 0.0 0.0 0.00 0.11 0.00 90 1012.4
20260901093459 69 276 0.0 0.0 0.00 0.11 0.00 90 1012.4